User: anonymous   Login
Location: Unspecified
(0.0000°N, 0.0000°E)
Time: 03:44:18
(UTC+02:00)
Language:

NAVSTAR 65 (USA 213) - Orbit

View from above orbital plane
View from above orbital plane
View from above satellite
View from above satellite

Ground track
Ground track

The orbit data is extracted from the following two-line orbital elements,

1 36585U 10022A   18110.41260920 -.00000042  00000-0  00000+0 0  9993
2 36585  55.8425 328.4271 0072747  47.1418 285.1574  2.00565622 57829
Epoch (UTC): 20 April 2018 09:54:09
Eccentricity: 0.0072747
inclination: 55.8425°
perigee height: 19988 km
apogee height: 20375 km
right ascension of ascending node: 328.4271°
argument of perigee: 47.1418°
revolutions per day: 2.00565622
mean anomaly at epoch: 285.1574°
orbit number at epoch: 5782

The dashed part of the orbit path shows where the satellite is in the earth's shadow,  

DLR